#timestamp,LO_Frequency,Hit,Temp,Hum 
1479762015.8,286047150.2,N,0.0,0.0
1479762035.6,286047151.1,N,0.0,0.0
1479762055.5,286047151.6,N,0.0,0.0
1479762075.3,286047148.7,N,0.0,0.0
1479762095.2,286047150.6,N,0.0,0.0
1479762115.9,286047150.2,N,0.0,0.0
1479762135.7,286047152.9,N,0.0,0.0
1479762155.6,286047150.1,N,0.0,0.0
1479762175.4,286047150.9,N,0.0,0.0
1479762195.2,286047150.5,N,0.0,0.0
1479762215.1,286047152.1,N,0.0,0.0
1479762216.0,286047152.1,N,0.0,0.0
1479762235.8,286047150.5,N,0.0,0.0
1479762255.7,286047153.2,N,0.0,0.0
1479762275.5,286047152.2,N,0.0,0.0
1479762295.3,286047153.5,N,0.0,0.0
1479762315.2,286047154.2,N,0.0,0.0
1479762335.0,286047153.9,N,0.0,0.0
1479762335.9,286047153.9,N,0.0,0.0
1479762355.8,286047152.1,N,0.0,0.0
1479762375.6,286047154.2,N,0.0,0.0
1479762395.4,286047154.1,N,0.0,0.0
1479762415.3,286047154.2,N,0.0,0.0
1479762435.1,286047154.0,N,0.0,0.0
1479762455.8,286047154.7,N,0.0,0.0
1479762475.7,286047154.7,N,0.0,0.0
1479762495.5,286047154.1,N,0.0,0.0
1479762515.4,286047152.0,N,0.0,0.0
1479762535.2,286047151.9,N,0.0,0.0
1479762555.0,286047154.0,N,0.0,0.0
1479762555.9,286047154.0,N,0.0,0.0
1479762575.8,286047156.4,N,0.0,0.0
1479762595.6,286047153.7,N,0.0,0.0
1479762615.5,286047156.1,N,0.0,0.0
1479762635.3,286047156.3,N,0.0,0.0
1479762655.1,286047155.7,N,0.0,0.0
1479762675.9,286047155.9,N,0.0,0.0
1479762695.7,286047155.1,N,0.0,0.0
1479762715.5,286047155.5,N,0.0,0.0
1479762735.4,286047156.1,N,0.0,0.0
1479762755.2,286047155.9,N,0.0,0.0
1479762775.1,286047155.1,N,0.0,0.0
1479762776.0,286047155.1,N,0.0,0.0
1479762795.8,286047155.0,N,0.0,0.0
1479762815.6,286047155.0,N,0.0,0.0
1479762835.5,286047155.6,N,0.0,0.0
1479762855.3,286047155.1,N,0.0,0.0
1479762875.1,286047157.0,N,0.0,0.0
1479762895.9,286047158.4,N,0.0,0.0
1479762915.7,286047160.0,N,0.0,0.0
1479762935.6,286047162.4,N,0.0,0.0
1479762955.4,286047160.0,N,0.0,0.0
1479762975.2,286047161.1,N,0.0,0.0
1479762995.1,286047161.0,N,0.0,0.0
1479762996.0,286047161.0,N,0.0,0.0
1479763015.8,286047162.2,N,0.0,0.0
1479763035.7,286047160.1,N,0.0,0.0
1479763055.5,286047162.6,N,0.0,0.0
1479763075.3,286047162.0,N,0.0,0.0
1479763095.2,286047159.7,N,0.0,0.0
1479763115.0,286047162.3,N,0.0,0.0
1479763115.9,286047162.3,N,0.0,0.0
1479763135.8,286047161.5,N,0.0,0.0
1479763155.6,286047161.9,N,0.0,0.0
1479763175.4,286047163.6,N,0.0,0.0
1479763195.3,286047163.5,N,0.0,0.0
1479763215.1,286047165.3,N,0.0,0.0
1479763235.8,286047165.9,N,0.0,0.0
1479763255.7,286047166.0,N,0.0,0.0
1479763275.5,286047163.9,N,0.0,0.0
1479763295.4,286047162.2,N,0.0,0.0
1479763315.2,286047163.7,N,0.0,0.0
1479763335.0,286047165.5,N,0.0,0.0
1479763335.9,286047165.5,N,0.0,0.0
1479763355.8,286047163.4,N,0.0,0.0
1479763375.6,286047163.6,N,0.0,0.0
1479763395.4,286047167.1,N,0.0,0.0
1479763415.3,286047166.4,N,0.0,0.0
1479763435.1,286047167.4,N,0.0,0.0
1479763455.9,286047164.6,N,0.0,0.0
1479763475.7,286047169.2,N,0.0,0.0
1479763495.5,286047166.5,N,0.0,0.0
1479763515.4,286047167.1,N,0.0,0.0
1479763535.2,286047167.1,N,0.0,0.0
1479763555.1,286047167.4,N,0.0,0.0
1479763556.0,286047167.4,N,0.0,0.0
1479763575.8,286047168.3,N,0.0,0.0
1479763595.6,286047170.3,N,0.0,0.0
1479763615.5,286047170.3,N,0.0,0.0
1479763635.3,286047168.5,N,0.0,0.0
1479763655.1,286047170.5,N,0.0,0.0
1479763675.9,286047169.6,N,0.0,0.0
1479763695.7,286047171.7,N,0.0,0.0
1479763715.6,286047171.2,N,0.0,0.0
1479763735.4,286047173.4,N,0.0,0.0
1479763755.2,286047173.5,N,0.0,0.0
1479763775.1,286047171.9,N,0.0,0.0
1479763776.0,286047171.9,N,0.0,0.0
1479763795.8,286047173.7,N,0.0,0.0
1479763815.6,286047175.6,N,0.0,0.0
1479763835.5,286047173.0,N,0.0,0.0
1479763855.3,286047172.8,N,0.0,0.0
1479763875.2,286047175.0,N,0.0,0.0
1479763895.9,286047174.8,N,0.0,0.0
1479763915.7,286047175.6,N,0.0,0.0
1479763935.6,286047174.3,N,0.0,0.0
1479763955.4,286047177.2,N,0.0,0.0
1479763975.3,286047176.7,N,0.0,0.0
1479763995.1,286047176.7,N,0.0,0.0
1479763996.0,286047176.7,N,0.0,0.0
1479764015.8,286047176.5,N,0.0,0.0
1479764035.7,286047174.2,N,0.0,0.0
1479764055.5,286047178.7,N,0.0,0.0
1479764075.3,286047178.6,N,0.0,0.0
1479764095.2,286047178.3,N,0.0,0.0
1479764115.0,286047177.5,N,0.0,0.0
1479764115.9,286047177.5,N,0.0,0.0
1479764135.8,286047179.5,N,0.0,0.0
1479764155.6,286047177.3,N,0.0,0.0
1479764175.4,286047178.0,N,0.0,0.0
1479764195.3,286047175.8,N,0.0,0.0
1479764215.1,286047179.7,N,0.0,0.0
1479764235.9,286047179.3,N,0.0,0.0
1479764255.7,286047179.8,N,0.0,0.0
1479764275.5,286047179.0,N,0.0,0.0
1479764295.4,286047181.1,N,0.0,0.0
1479764315.2,286047183.6,N,0.0,0.0
1479764335.0,286047183.4,N,0.0,0.0
1479764335.9,286047183.4,N,0.0,0.0
1479764355.8,286047182.2,N,0.0,0.0
1479764375.6,286047184.4,N,0.0,0.0
1479764395.5,286047182.2,N,0.0,0.0
1479764415.3,286047185.0,N,0.0,0.0
1479764435.1,286047184.6,N,0.0,0.0
1479764455.9,286047186.6,N,0.0,0.0
1479764475.7,286047184.8,N,0.0,0.0
1479764495.5,286047184.0,N,0.0,0.0
1479764515.4,286047186.2,N,0.0,0.0
1479764535.2,286047185.3,N,0.0,0.0
1479764555.1,286047188.0,N,0.0,0.0
1479764556.0,286047188.0,N,0.0,0.0
1479764575.8,286047186.0,N,0.0,0.0
1479764595.6,286047186.5,N,0.0,0.0
1479764615.5,286047185.6,N,0.0,0.0
1479764635.3,286047185.5,N,0.0,0.0
1479764655.1,286047188.4,N,0.0,0.0
1479764675.9,286047187.2,N,0.0,0.0
1479764695.7,286047189.4,N,0.0,0.0
1479764715.6,286047186.9,N,0.0,0.0
1479764735.4,286047189.8,N,0.0,0.0
1479764755.2,286047189.3,N,0.0,0.0
1479764775.1,286047190.9,N,0.0,0.0
1479764776.0,286047190.9,N,0.0,0.0
1479764795.8,286047188.9,N,0.0,0.0
1479764815.6,286047189.0,N,0.0,0.0
1479764835.5,286047188.6,N,0.0,0.0
1479764855.3,286047190.5,N,0.0,0.0
1479764875.2,286047190.1,N,0.0,0.0
1479764895.9,286047193.2,N,0.0,0.0
1479764915.7,286047192.5,N,0.0,0.0
1479764935.6,286047194.1,N,0.0,0.0
1479764955.4,286047191.8,N,0.0,0.0
1479764975.2,286047191.8,N,0.0,0.0
1479764995.1,286047191.7,N,0.0,0.0
1479764996.0,286047191.7,N,0.0,0.0
1479765015.8,286047194.8,N,0.0,0.0
1479765035.7,286047192.2,N,0.0,0.0
1479765055.5,286047191.7,N,0.0,0.0
1479765075.3,286047194.2,N,0.0,0.0
1479765095.2,286047196.2,N,0.0,0.0
1479765115.0,286047195.9,N,0.0,0.0
1479765115.9,286047195.9,N,0.0,0.0
1479765135.8,286047195.6,N,0.0,0.0
1479765155.6,286047196.1,N,0.0,0.0
1479765175.4,286047198.0,N,0.0,0.0
1479765195.3,286047197.6,N,0.0,0.0
1479765215.1,286047197.4,N,0.0,0.0
1479765235.8,286047197.3,N,0.0,0.0
1479765255.7,286047197.0,N,0.0,0.0
1479765275.5,286047197.0,N,0.0,0.0
1479765295.4,286047196.9,N,0.0,0.0
1479765315.2,286047199.2,N,0.0,0.0
1479765335.0,286047198.4,N,0.0,0.0
1479765335.9,286047198.4,N,0.0,0.0
1479765355.8,286047198.3,N,0.0,0.0
1479765375.6,286047201.1,N,0.0,0.0
1479765395.5,286047201.0,N,0.0,0.0
1479765415.3,286047200.0,N,0.0,0.0
1479765435.1,286047200.4,N,0.0,0.0
1479765455.9,286047200.3,N,0.0,0.0
1479765475.7,286047200.3,N,0.0,0.0
1479765495.5,286047202.6,N,0.0,0.0
1479765515.4,286047202.4,N,0.0,0.0
1479765535.2,286047202.7,N,0.0,0.0
1479765555.1,286047202.1,N,0.0,0.0
1479765556.0,286047202.1,N,0.0,0.0
1479765575.8,286047204.3,N,0.0,0.0
1479765595.6,286047201.8,N,0.0,0.0
